Weather History for KMTV - April, 2014

Change the Weather History Date:

Thursday, April 17, 2014

  Actual Average (KGSO) Record (KGSO)
Temperature  
Mean Temperature 44 °F 59 °F  
Max Temperature 62 °F 71 °F 90 °F (1967)
Min Temperature 26 °F 48 °F 29 °F (1949)
Degree Days  
Heating Degree Days 21 7  
Month to date heating degree days 150  
Since 1 July heating degree days 3475  
Cooling Degree Days 0 1  
Month to date cooling degree days 16  
Year to date cooling degree days 21  
Moisture  
Dew Point 28 °F    
Average Humidity 62    
Maximum Humidity 97    
Minimum Humidity 25    
Precipitation  
Precipitation 0.00 in 0.12 in 1.25 in (1910)
Month to date precipitation 2.04  
Year to date precipitation 11.79  
Snow  
Snow 0.00 in 0.00 in T in (2001)
Month to date snowfall 0.1  
Since 1 July snowfall 7.6  
Snow Depth -    
Sea Level Pressure  
Sea Level Pressure 30.52 in    
Wind  
Wind Speed 2 mph (ENE)    
Max Wind Speed 9 mph    
Max Gust Speed 16 mph    
Visibility 10 miles    
Events      
T = Trace of Precipitation, MM = Missing Value Source: NWS Daily Summary

Daily Weather History Graph

Daily Weather History Graph

Search for Another Location

Airport or City:

Trip Planner

Search our weather history database for the weather conditions in past years. The results will help you decide how hot, cold, wet, or windy it might be!

Date:

Astronomy

Apr. 17, 2014 Rise Set
Actual Time 6:43 AM EDT 7:56 PM EDT
Civil Twilight 6:16 AM EDT 8:22 PM EDT
Nautical Twilight 5:44 AM EDT 8:54 PM EDT
Astronomical Twilight 5:11 AM EDT 9:28 PM EDT
Moon 10:37 PM EDT (4/17) 8:16 AM EDT (4/17)
Length of Visible Light 14h 06m
Length of Day
13h 12m
Waning Gibbous, 94% of the Moon is Illuminated
Apr 17
Waning Gibbous
Apr 22
Last Quarter
Apr 29
New
May 6
First Quarter
May 14
Full

Hourly Weather History & Observations

Time (EDT) Temp. Windchill Dew Point Humidity Pressure Visibility Wind Dir Wind Speed Gust Speed Precip Events Conditions
12:15 AM 32.0 °F - 29.8 °F 92% 30.48 in 10.0 mi Calm Calm - N/A   Clear
12:35 AM 32.0 °F - 28.9 °F 88% 30.49 in 10.0 mi Calm Calm - N/A   Clear
12:55 AM 32.0 °F - 28.6 °F 87% 30.49 in 10.0 mi Calm Calm - N/A   Clear
1:15 AM 32.0 °F 28.7 °F 28.4 °F 87% 30.49 in 10.0 mi NW 3.5 mph - N/A   Clear
1:35 AM 31.3 °F - 28.2 °F 88% 30.49 in 10.0 mi Calm Calm - N/A   Clear
1:55 AM 30.0 °F - 27.9 °F 92% 30.49 in 10.0 mi Calm Calm - N/A   Clear
2:15 AM 30.4 °F - 27.7 °F 90% 30.50 in 10.0 mi Calm Calm - N/A   Clear
2:35 AM 29.8 °F 26.3 °F 27.9 °F 92% 30.50 in 10.0 mi NW 3.5 mph - N/A   Clear
2:55 AM 29.7 °F - 27.1 °F 90% 30.50 in 10.0 mi Calm Calm - N/A   Clear
3:15 AM 29.3 °F 25.6 °F 27.1 °F 92% 30.51 in 10.0 mi NW 3.5 mph - N/A   Clear
3:35 AM 29.3 °F 25.6 °F 26.8 °F 90% 30.51 in 10.0 mi NW 3.5 mph - N/A   Clear
3:55 AM 28.8 °F - 26.6 °F 92% 30.52 in 10.0 mi Calm Calm - N/A   Clear
4:15 AM 28.4 °F - 26.8 °F 94% 30.53 in 10.0 mi Calm Calm - N/A   Clear
4:35 AM 28.2 °F - 26.6 °F 94% 30.54 in 10.0 mi Calm Calm - N/A   Clear
4:55 AM 27.9 °F - 26.6 °F 95% 30.54 in 10.0 mi Calm Calm - N/A   Clear
5:15 AM 27.5 °F - 26.6 °F 96% 30.54 in 10.0 mi Calm Calm - N/A   Clear
5:35 AM 27.1 °F - 26.2 °F 96% 30.55 in 10.0 mi Calm Calm - N/A   Clear
5:55 AM 27.1 °F - 26.1 °F 96% 30.55 in 10.0 mi Calm Calm - N/A   Clear
6:15 AM 26.6 °F - 25.9 °F 97% 30.56 in 10.0 mi Calm Calm - N/A   Clear
6:35 AM 26.2 °F - 25.5 °F 97% 30.56 in 10.0 mi Calm Calm - N/A   Clear
6:55 AM 26.4 °F - 25.7 °F 97% 30.57 in 10.0 mi Calm Calm - N/A   Clear
7:15 AM 27.5 °F - 26.6 °F 96% 30.57 in 10.0 mi Calm Calm - N/A   Clear
7:35 AM 29.7 °F - 28.4 °F 95% 30.57 in 10.0 mi Calm Calm - N/A   Clear
7:55 AM 32.4 °F 29.1 °F 28.9 °F 87% 30.58 in 10.0 mi North 3.5 mph - N/A   Clear
8:15 AM 35.4 °F 31.5 °F 28.2 °F 75% 30.59 in 10.0 mi North 4.6 mph - N/A   Clear
8:35 AM 38.1 °F 33.7 °F 28.8 °F 69% 30.59 in 10.0 mi North 5.8 mph - N/A   Clear
8:55 AM 39.9 °F 35.1 °F 29.3 °F 66% 30.59 in 10.0 mi NE 6.9 mph - N/A   Clear
9:15 AM 41.9 °F 38.2 °F 28.4 °F 59% 30.60 in 10.0 mi ENE 5.8 mph - N/A   Clear
9:35 AM 41.9 °F 38.2 °F 28.2 °F 58% 30.60 in 10.0 mi NE 5.8 mph - N/A   Clear
9:55 AM 43.3 °F 40.7 °F 29.3 °F 58% 30.60 in 10.0 mi NE 4.6 mph - N/A   Clear
10:15 AM 45.7 °F 41.5 °F 28.4 °F 51% 30.60 in 10.0 mi NNE 8.1 mph - N/A   Clear
10:35 AM 46.6 °F - 27.7 °F 48% 30.60 in 10.0 mi NNE 5.8 mph - N/A   Clear
10:55 AM 48.2 °F - 28.2 °F 46% 30.60 in 10.0 mi NNE 9.2 mph - N/A   Clear
11:15 AM 48.6 °F - 26.8 °F 43% 30.60 in 10.0 mi ENE 5.8 mph - N/A   Clear
11:35 AM 50.2 °F - 27.9 °F 42% 30.59 in 10.0 mi NE 8.1 mph - N/A   Clear
11:55 AM 52.2 °F - 26.2 °F 37% 30.59 in 10.0 mi NE 4.6 mph - N/A   Clear
12:15 PM 52.2 °F - 25.2 °F 35% 30.58 in 10.0 mi East 8.1 mph - N/A   Clear
12:35 PM 52.9 °F - 26.6 °F 36% 30.57 in 10.0 mi East 5.8 mph - N/A   Clear
12:55 PM 53.6 °F - 26.4 °F 35% 30.57 in 10.0 mi ENE 6.9 mph - N/A   Clear
1:15 PM 54.3 °F - 28.0 °F 36% 30.55 in 10.0 mi NNE 9.2 mph - N/A   Clear
1:35 PM 55.4 °F - 24.3 °F 30% 30.55 in 10.0 mi Calm Calm - N/A   Clear
1:55 PM 56.5 °F - 24.8 °F 30% 30.54 in 10.0 mi East 8.1 mph - N/A   Clear
2:15 PM 56.8 °F - 23.7 °F 28% 30.53 in 10.0 mi NE 5.8 mph - N/A   Clear
2:35 PM 57.9 °F - 26.2 °F 30% 30.52 in 10.0 mi ENE 5.8 mph 9.2 mph N/A   Clear
2:55 PM 58.5 °F - 24.1 °F 27% 30.51 in 10.0 mi East 5.8 mph - N/A   Clear
3:15 PM 59.7 °F - 25.5 °F 27% 30.50 in 10.0 mi East 3.5 mph 9.2 mph N/A   Clear
3:35 PM 60.8 °F - 25.0 °F 25% 30.50 in 10.0 mi ENE 5.8 mph - N/A   Clear
3:55 PM 61.0 °F - 28.0 °F 29% 30.49 in 10.0 mi ESE 6.9 mph 16.1 mph N/A   Clear
4:15 PM 61.2 °F - 26.2 °F 26% 30.48 in 10.0 mi East 5.8 mph - N/A   Clear
4:35 PM 61.0 °F - 27.1 °F 28% 30.47 in 10.0 mi ENE 4.6 mph - N/A   Clear
4:55 PM 61.7 °F - 26.1 °F 26% 30.47 in 10.0 mi ENE 6.9 mph - N/A   Clear
5:15 PM 62.6 °F - 27.5 °F 26% 30.47 in 10.0 mi East 6.9 mph - N/A   Clear
5:35 PM 61.5 °F - 26.6 °F 27% 30.47 in 10.0 mi East 8.1 mph - N/A   Clear
5:55 PM 61.3 °F - 25.7 °F 26% 30.46 in 10.0 mi Calm Calm - N/A   Clear
6:15 PM 61.2 °F - 27.5 °F 28% 30.45 in 10.0 mi East 6.9 mph - N/A   Clear
6:35 PM 60.6 °F - 25.7 °F 26% 30.45 in 10.0 mi ESE 8.1 mph - N/A   Clear
6:55 PM 59.2 °F - 24.4 °F 26% 30.45 in 10.0 mi East 6.9 mph - N/A   Clear
7:15 PM 57.6 °F - 26.4 °F 30% 30.45 in 10.0 mi ESE 6.9 mph - N/A   Clear
7:35 PM 55.0 °F - 26.8 °F 34% 30.45 in 10.0 mi ESE 3.5 mph - N/A   Clear
7:55 PM 52.3 °F - 29.8 °F 42% 30.46 in 10.0 mi Calm Calm - N/A   Clear
8:15 PM 47.8 °F - 33.6 °F 58% 30.47 in 10.0 mi Calm Calm - N/A   Clear
8:35 PM 46.6 °F - 32.0 °F 57% 30.48 in 10.0 mi Calm Calm - N/A   Clear
8:55 PM 46.0 °F - 32.7 °F 60% 30.47 in - Calm Calm - N/A   Unknown
9:15 PM 43.0 °F - 32.5 °F 67% 30.47 in 10.0 mi Calm Calm - N/A   Unknown
9:35 PM 41.4 °F - 33.1 °F 72% 30.48 in - Calm Calm - N/A   Unknown
9:55 PM 40.1 °F - 33.3 °F 77% 30.49 in - Calm Calm - N/A   Unknown
10:15 PM 39.4 °F - 33.6 °F 80% 30.49 in - Calm Calm - N/A   Unknown
10:35 PM 39.6 °F - 33.1 °F 78% 30.50 in - Calm Calm - N/A   Clear
10:55 PM 38.1 °F - 32.9 °F 81% 30.50 in - Calm Calm - N/A   Unknown
11:15 PM 36.9 °F - 32.2 °F 83% 30.50 in - Calm Calm - N/A   Clear
11:35 PM 36.0 °F - 32.4 °F 87% 30.49 in - Calm Calm - N/A   Unknown
11:55 PM 35.2 °F - 32.0 °F 88% 30.48 in 10.0 mi Calm Calm - N/A   Clear